Location: *
(51.1248°S, 108.4023°W)
Time: 04:36:58
(UTC+00:00)

Cosmos 2278 Rocket - Pass Details

Date: 28 October 2021
Orbit: 841 x 845 km, 71.0° (Epoch: 01 December)

Event Time Altitude Azimuth Distance (km) Brightness Sun altitude
Rises 10:44:47 0° 224° (SW) 3,436 5.3 -8.9°
Reaches altitude 10° 10:50:31 10° 179° (S) 2,501 5.2 -8.2°
Maximum altitude 10:50:57 10° 174° (S) 2,495 5.2 -8.1°
Drops below altitude 10° 10:51:24 10° 170° (S) 2,501 5.3 -8.1°
Sets 10:57:06 0° 125° (SE) 3,434 8.0 -7.3°
